Theta_e
321 326 329 331 339 337 339 336 333 334 335 332 331 333 333 332 337 343 339 339 339 342 340 337 337 337 336 335 333 332 331 327 327 327 326 327 330 330 328 328 328 329 328 328 329 331 329 327 331
323 325 330 335 338 338 337 334 335 333 333 332 332 333 335 336 334 338 339 339 339 341 339 339 336 336 335 335 333 332 332 329 331 332 330 325 329 328 328 326 326 326 329 331 328 329 326 325 329
323 328 334 337 336 338 337 335 333 332 330 332 333 331 334 339 334 337 339 340 339 339 340 339 336 336 335 334 333 332 331 329 327 332 332 329 326 329 328 327 326 326 326 326 327 326 324 325 330
322 331 332 336 337 335 334 333 331 331 330 331 332 337 336 337 336 337 338 340 339 339 340 339 336 336 335 334 332 331 329 327 325 330 333 332 330 327 327 328 326 325 325 325 326 324 325 329 330
323 331 335 334 335 333 333 331 330 330 330 328 331 336 338 337 337 338 339 339 339 339 339 339 335 336 336 335 332 330 327 325 324 330 332 330 327 327 326 325 326 325 324 325 324 321 325 326 328
324 330 333 333 334 332 331 330 329 329 329 329 330 334 337 337 338 338 339 338 338 339 339 338 336 336 336 335 333 330 328 327 324 327 329 328 325 326 328 326 325 325 324 324 323 317 317 323 324
324 326 329 329 333 332 330 329 329 328 329 329 329 331 331 334 338 339 338 338 338 339 339 337 337 335 336 335 333 331 329 328 326 323 328 326 329 327 326 328 326 325 324 324 324 323 316 314 316
324 322 325 331 333 333 327 328 327 325 326 327 329 328 330 331 336 338 338 339 339 339 339 338 337 336 336 336 334 332 330 329 328 325 324 327 327 328 326 325 326 325 324 324 324 324 322 317 315
323 321 321 327 330 330 325 327 325 323 324 327 327 326 328 331 334 336 337 338 338 339 339 338 338 337 337 336 335 335 332 330 329 328 325 322 325 327 327 326 326 327 325 323 324 324 324 323 323
321 320 321 325 327 327 325 326 324 323 323 325 325 325 325 327 328 329 329 330 338 338 339 338 338 338 337 336 336 335 334 332 331 330 330 329 324 325 327 327 327 326 325 324 324 324 322 323 324
320 321 322 324 326 326 326 326 326 325 325 325 323 324 324 323 324 324 324 325 327 328 335 337 338 338 337 336 336 335 334 333 333 332 331 331 330 328 328 327 326 326 326 324 324 324 324 324 323
322 320 322 325 325 326 327 326 326 325 325 323 324 323 323 321 321 322 322 322 323 323 324 330 336 337 338 337 336 336 334 334 333 332 332 331 331 330 330 329 327 326 327 326 326 325 325 326 325
322 321 323 325 325 325 325 325 324 322 322 322 322 322 322 320 321 321 321 322 322 322 322 323 329 335 337 338 337 336 335 335 335 334 333 332 332 331 330 329 329 328 327 326 326 326 325 325 325
320 320 323 324 325 324 324 322 321 320 320 320 321 321 319 318 320 321 320 321 321 322 321 323 325 331 335 336 337 337 335 334 334 334 334 334 332 331 331 331 330 329 328 327 326 326 326 325 325
322 322 321 322 322 322 321 320 319 317 319 320 319 317 317 318 320 320 320 320 321 321 321 321 324 328 330 333 334 336 337 335 334 334 333 333 334 332 331 331 330 329 329 328 328 327 327 326 326
321 318 319 317 318 320 316 313 314 316 317 317 318 315 317 317 319 320 320 320 320 320 320 320 319 320 322 325 329 332 334 335 336 334 333 333 332 332 332 331 331 330 330 330 329 328 327 327 326
319 318 315 322 319 318 317 315 320 319 319 318 316 316 317 316 316 317 318 317 317 316 316 316 317 317 317 320 324 327 329 332 334 335 333 332 333 331 331 331 332 331 332 332 330 329 329 328 327
318 319 315 316 320 320 320 319 317 319 319 318 317 315 315 315 315 317 315 314 314 314 314 315 317 320 321 317 320 324 327 329 332 333 332 333 332 331 332 330 330 330 331 330 330 329 328 328 327
317 316 315 317 319 319 319 318 317 316 315 315 315 315 315 314 315 315 313 312 312 312 311 312 313 315 319 325 324 326 328 329 331 332 331 331 331 331 331 331 329 328 329 330 329 328 327 326 325
318 318 317 319 319 320 318 318 317 316 315 315 315 315 314 314 313 311 311 310 309 308 307 308 309 312 315 319 326 329 330 329 329 329 329 328 327 327 327 327 328 328 327 326 327 327 326 326 326
319 318 317 317 319 318 318 316 315 314 314 314 315 315 315 312 311 309 309 308 306 305 305 304 305 308 313 317 323 326 327 328 323 319 317 316 317 319 320 318 319 320 320 320 321 323 325 325 324
319 317 318 321 320 319 316 317 315 316 315 315 314 313 311 310 309 307 307 304 303 303 302 302 302 303 307 311 314 316 315 313 311 311 311 311 310 310 306 307 309 311 311 312 311 312 314 317 320
319 318 319 320 320 319 318 317 315 315 315 314 312 313 311 308 307 305 304 302 301 300 300 299 299 299 301 303 306 306 306 304 305 304 305 303 302 300 297 298 300 301 302 303 305 307 309 310 313
318 318 318 318 318 316 316 317 314 314 315 314 312 311 309 307 304 302 302 300 298 297 297 297 297 297 296 297 299 299 298 298 297 297 297 297 297 295 294 295 296 296 297 298 299 301 306 306 307
319 319 318 320 316 316 315 316 313 312 313 314 313 310 308 306 304 302 300 298 296 295 295 294 294 294 295 294 293 295 295 295 294 294 293 293 293 292 292 292 293 294 295 296 297 300 300 300 301
321 319 318 320 320 317 315 315 314 315 313 313 311 309 307 305 303 301 299 297 294 293 293 292 292 292 293 292 291 291 292 291 291 291 291 290 290 289 290 290 291 292 292 294 296 296 297 297 297
320 321 317 317 309 314 314 313 311 313 313 313 310 308 306 304 302 299 298 296 293 292 291 290 290 290 290 290 289 289 289 289 289 289 289 288 288 288 288 289 289 290 291 292 294 295 294 293 294
316 315 317 316 313 313 312 311 311 313 312 312 311 309 307 303 301 297 296 295 292 291 290 289 289 288 288 288 288 287 287 287 287 286 286 286 286 286 287 287 288 288 290 290 290 290 290 290 290
315 316 317 317 314 316 315 310 311 311 311 312 311 309 306 302 299 297 295 294 292 290 289 288 288 287 287 286 286 286 285 285 285 285 285 285 285 285 285 286 286 287 288 287 287 288 288 288 288
314 314 315 315 316 314 313 313 310 310 310 310 309 308 306 303 300 296 294 293 292 290 288 287 286 286 285 285 285 284 284 284 284 283 284 284 284 284 284 285 285 286 286 285 285 285 285 285 287
Wind_Speed
25 16 11 6 2 2 6 3 6 5 7 6 6 7 14 11 6 4 7 6 8 11 7 8 8 7 6 6 5 5 6 6 6 6 5 4 7 7 8 8 6 7 7 6 5 8 8 7 5
24 17 7 4 2 3 5 9 10 8 6 4 5 2 11 10 7 10 9 5 8 7 7 6 7 7 6 5 4 5 4 4 3 3 4 5 5 4 4 7 6 8 6 7 4 5 5 4 3
21 9 2 2 2 8 5 11 9 7 6 5 5 9 6 5 10 5 7 7 9 8 6 4 5 7 6 4 3 4 3 2 1 1 2 4 4 3 4 5 3 5 4 3 2 2 4 4 6
10 4 3 2 7 6 9 9 10 8 7 3 4 9 6 11 5 6 6 7 8 8 5 5 6 7 6 5 3 3 2 1 2 3 2 4 4 3 2 2 3 4 2 2 2 2 1 6 5
8 3 2 3 9 4 9 7 3 7 6 6 1 7 7 7 10 8 8 6 8 8 5 4 6 6 5 5 3 3 2 2 3 6 5 5 1 2 1 1 1 0 0 2 5 2 2 1 2
4 1 3 5 8 5 5 3 2 8 9 3 5 9 5 9 10 7 8 7 6 7 5 4 6 6 6 6 5 4 4 3 4 8 7 5 5 3 5 3 4 4 3 5 7 5 4 5 5
3 3 7 8 10 6 6 1 3 6 9 5 3 7 8 13 7 7 7 7 5 6 7 5 4 5 7 7 7 6 6 5 4 7 11 8 8 5 4 7 5 6 6 7 9 7 6 6 8
3 1 6 5 9 6 6 2 4 7 6 4 4 2 5 9 8 7 6 5 5 6 6 7 7 7 6 6 7 9 8 8 6 6 10 12 9 7 6 8 8 7 6 8 10 9 8 8 9
3 2 5 8 5 7 8 6 1 1 6 4 2 9 9 9 7 8 8 8 8 7 7 8 10 9 9 9 9 9 10 10 10 9 9 10 13 9 9 8 10 11 12 10 10 11 12 12 12
2 3 6 6 2 10 9 6 9 5 8 6 6 9 10 7 5 2 2 3 13 12 12 12 12 11 10 11 11 11 10 10 12 11 9 9 10 9 11 10 12 14 14 13 14 14 14 14 16
3 3 1 6 9 9 7 1 2 5 7 5 9 7 5 4 3 4 4 4 5 5 8 13 13 13 11 13 13 12 13 12 11 12 11 11 10 11 14 15 16 14 13 18 16 16 17 15 14
3 2 6 7 5 4 3 3 4 7 4 7 5 3 3 5 6 5 5 6 5 7 9 9 13 13 15 14 14 14 14 14 15 15 16 17 15 13 12 12 10 12 12 12 13 14 16 15 15
5 2 3 9 4 4 5 4 5 6 6 5 3 4 4 7 7 5 7 6 8 9 7 8 11 14 15 16 16 15 16 16 16 14 15 16 18 18 16 16 15 14 15 15 16 16 17 18 18
3 3 3 6 3 1 2 6 4 6 9 9 5 5 6 8 7 7 3 11 11 7 5 5 7 10 13 15 16 17 16 18 18 18 19 15 18 19 18 18 18 17 17 17 17 18 19 20 20
3 0 5 4 5 3 2 7 12 9 7 8 8 8 8 9 6 10 10 7 6 7 6 5 4 7 10 14 16 17 17 16 18 18 18 18 16 20 20 19 19 19 18 17 17 17 18 19 20
3 3 4 5 8 3 5 7 4 12 9 9 8 9 5 6 13 13 9 8 5 5 7 7 5 8 10 12 13 14 17 18 20 18 19 18 17 19 19 21 21 19 18 19 19 19 21 21 23
5 3 8 4 7 5 8 6 7 5 2 6 7 7 6 7 11 14 4 12 8 5 10 9 9 10 10 10 12 15 14 14 15 16 16 17 18 19 19 20 18 16 17 17 19 19 19 20 21
5 5 4 6 7 5 7 14 10 6 9 9 9 8 8 7 8 4 16 11 7 8 8 9 8 8 8 10 11 12 12 11 11 12 11 11 15 17 18 18 18 17 15 17 16 17 19 20 22
7 3 7 4 5 3 8 12 13 9 9 8 8 8 8 9 10 20 17 12 10 10 9 11 10 11 7 4 7 8 9 7 6 8 6 3 4 5 6 12 14 14 14 14 14 17 19 21 21
4 7 5 5 5 3 8 14 16 14 10 10 9 9 9 7 9 17 18 15 13 11 11 12 12 12 11 5 5 5 5 9 10 7 5 4 6 4 3 5 7 8 11 12 14 15 17 17 18
7 7 6 4 1 6 10 11 11 8 12 6 2 3 3 9 9 9 15 14 12 13 14 13 14 13 12 11 4 2 3 5 10 13 12 13 10 5 6 6 7 8 9 12 13 12 13 13 14
8 8 7 5 2 3 5 5 5 4 6 7 8 4 8 9 9 8 12 12 12 11 12 13 15 16 13 12 14 14 16 15 12 13 12 13 10 9 9 8 7 7 7 8 10 12 12 14 14
2 4 5 6 5 4 3 3 6 4 5 7 8 9 9 9 8 8 10 11 10 11 12 13 15 18 16 17 16 17 17 15 10 11 10 11 10 11 13 13 13 12 12 12 12 13 13 14 14
6 4 3 1 1 2 9 6 4 5 4 1 9 10 9 8 8 10 10 12 12 11 13 13 15 18 17 16 17 18 17 13 14 13 12 11 10 12 15 14 14 13 14 15 15 14 13 15 14
5 6 2 0 0 5 2 7 5 5 4 3 7 9 9 8 7 7 8 11 11 11 12 12 12 15 15 16 15 15 15 14 14 13 12 12 13 15 17 16 16 16 15 14 14 14 15 17 16
7 5 3 4 2 2 2 6 5 1 5 7 10 10 9 8 7 6 8 10 10 10 10 10 11 13 12 13 13 13 12 12 12 11 11 12 12 14 14 15 15 16 16 15 15 16 17 17 17
5 6 3 2 2 2 5 5 9 7 6 6 8 8 8 8 7 7 8 9 9 8 8 9 9 10 11 10 10 12 12 12 11 11 10 10 11 12 14 15 15 15 17 18 17 19 18 18 19
1 2 3 1 2 5 5 6 7 4 10 7 8 8 8 8 8 7 9 9 8 6 6 6 8 9 9 9 10 10 11 11 10 10 12 12 12 13 14 15 15 16 18 18 17 18 19 20 20
3 2 3 4 4 3 2 4 3 10 7 3 6 7 8 8 7 7 10 10 8 6 6 5 6 6 7 8 8 8 9 9 9 10 11 12 12 14 15 16 17 19 19 21 22 20 21 21 20
10 8 9 4 4 4 2 8 6 4 7 8 7 7 8 8 8 8 12 12 11 9 7 6 5 5 6 6 6 8 8 9 9 10 11 11 13 14 15 17 18 19 18 19 21 21 21 21 21
Wind_Direction
343 339 313 272 271 199 126 78 102 90 83 48 43 36 83 47 24 68 117 81 126 137 132 142 141 143 138 125 102 92 84 81 95 99 96 106 107 96 78 84 76 76 69 76 58 61 57 54 61
336 328 275 262 245 185 100 113 79 66 80 156 63 152 83 75 67 123 129 104 137 141 132 152 155 155 153 139 118 107 96 77 112 102 101 93 119 96 96 101 82 85 83 92 72 49 44 41 60
327 293 272 272 279 21 119 102 105 104 54 11 126 53 31 18 52 80 99 123 140 136 164 176 170 162 162 155 130 126 115 93 134 166 177 128 141 135 124 115 68 110 115 100 32 27 15 30 111
319 245 247 257 90 35 108 101 122 131 120 61 330 96 93 39 56 59 120 128 145 142 162 166 182 170 172 174 158 150 148 136 148 168 144 181 150 136 112 144 101 77 70 61 333 333 72 93 125
301 267 264 264 72 51 77 88 93 94 95 57 77 84 87 74 94 101 123 133 136 146 188 231 183 177 184 189 195 193 176 155 161 170 140 161 215 235 206 227 209 124 42 222 302 308 246 182 148
310 240 280 199 129 103 95 122 161 93 107 124 79 104 93 86 86 108 130 131 132 150 162 224 222 198 200 208 220 216 197 183 171 185 184 193 193 196 231 224 298 263 271 255 312 311 276 263 260
321 335 269 294 130 147 134 194 236 132 123 56 332 105 121 93 109 123 132 131 138 146 172 197 238 231 230 224 229 231 223 210 199 193 199 208 207 217 218 226 245 275 266 274 285 298 284 277 277
284 265 278 295 140 157 118 181 26 13 75 141 2 79 105 101 116 121 130 144 164 183 187 199 206 243 254 258 254 245 235 231 225 211 207 215 214 219 231 238 234 245 257 266 279 288 294 284 277
287 279 258 243 210 137 144 146 357 311 125 75 39 73 100 115 129 149 161 180 191 203 207 211 214 211 235 244 252 258 249 241 238 234 226 227 224 224 244 253 237 235 244 246 266 272 280 283 281
257 213 255 5 103 127 168 184 150 182 132 144 157 130 143 149 152 154 290 248 188 202 210 212 216 222 228 228 237 247 251 251 255 249 246 245 225 223 232 235 231 241 251 248 249 258 269 274 276
227 240 44 36 33 18 120 252 42 242 187 191 182 147 97 48 275 254 269 265 243 272 218 214 218 226 225 235 236 239 242 248 243 243 239 243 246 232 238 244 246 255 262 251 254 257 261 267 274
300 280 338 94 20 23 100 275 170 251 244 72 76 30 342 278 275 294 335 315 316 297 287 253 225 220 228 228 238 241 244 246 240 240 239 235 236 240 242 248 251 245 252 254 253 247 259 263 266
261 247 41 61 68 337 25 288 259 286 273 321 181 199 250 258 272 328 302 284 257 260 275 276 248 225 228 231 230 234 244 244 239 241 244 240 238 238 242 242 243 245 248 244 247 252 249 253 258
324 222 185 127 218 252 278 275 276 216 243 261 254 243 255 265 257 268 259 276 275 230 280 302 256 239 231 235 234 236 236 250 251 253 234 242 242 238 241 240 240 243 247 251 252 253 255 257 259
357 91 274 207 223 243 45 280 239 231 229 208 233 264 244 237 251 261 247 240 278 283 280 307 286 244 242 243 244 241 240 244 249 254 248 241 238 244 242 245 252 253 254 254 255 257 259 260 262
192 277 211 208 180 152 129 259 293 213 203 236 255 250 286 278 252 248 251 224 161 326 319 310 319 298 281 255 251 249 246 243 245 248 255 255 248 242 245 244 248 251 256 257 252 255 258 261 263
207 236 215 167 191 180 188 269 103 91 230 250 262 262 276 303 307 299 334 82 66 2 336 325 317 301 287 275 261 253 254 252 244 256 257 256 259 254 248 248 258 259 258 261 259 260 259 270 270
202 218 219 220 183 239 231 250 279 205 191 221 244 267 267 269 267 296 84 66 38 12 339 344 338 336 313 285 269 260 255 258 253 256 265 259 255 263 263 259 263 265 271 268 267 267 271 270 277
344 220 234 184 114 20 266 274 273 264 268 264 257 252 255 252 251 98 77 54 45 24 11 0 358 353 314 334 280 252 254 258 244 243 236 238 274 296 287 274 270 277 278 285 280 279 280 289 289
257 288 250 128 160 167 264 271 272 258 245 235 236 245 242 234 100 78 71 64 50 37 32 26 23 10 1 321 333 36 65 105 102 85 72 41 25 1 308 305 311 298 296 297 292 286 286 281 289
246 241 271 279 283 247 270 273 254 241 246 223 291 250 87 77 82 81 73 65 54 42 34 32 32 28 29 27 359 246 228 77 57 48 49 55 58 36 34 27 10 357 357 359 358 352 308 295 293
222 214 232 302 313 243 27 293 315 217 205 176 207 142 98 92 78 76 83 69 56 45 43 41 42 41 43 52 55 67 72 75 66 65 74 63 42 26 28 27 17 4 356 352 350 349 346 347 328
213 130 181 209 246 334 220 235 268 189 239 205 160 119 93 82 103 94 85 86 71 58 53 51 50 48 50 60 64 72 72 71 74 72 77 55 44 21 32 36 33 26 20 14 7 359 359 351 346
124 134 121 129 39 274 209 193 252 174 191 297 115 125 124 117 105 102 105 93 73 61 57 56 55 52 49 60 70 65 65 64 65 55 54 46 32 21 25 31 30 25 23 18 12 12 16 12 7
186 177 138 192 258 228 147 197 244 304 136 148 174 132 122 122 125 123 106 90 75 63 59 59 60 58 54 54 62 71 65 64 58 55 45 38 27 17 15 20 22 22 18 19 17 21 25 14 18
190 205 164 233 196 4 70 236 260 360 6 60 101 121 117 120 104 107 112 101 90 76 68 65 62 60 59 55 53 60 70 65 59 54 48 39 29 17 11 18 23 20 19 21 33 27 26 23 18
173 220 298 22 76 67 231 265 290 208 222 123 131 123 140 137 142 146 120 107 97 82 70 69 69 67 60 61 52 54 55 57 52 47 44 39 27 20 14 21 24 25 26 29 30 32 17 20 19
223 349 76 352 172 243 252 250 246 276 194 168 173 158 149 142 152 141 141 129 117 112 98 83 78 68 66 58 59 51 54 51 52 46 41 37 32 30 28 31 33 36 38 28 26 29 18 19 17
181 227 222 170 184 204 308 256 28 36 72 176 178 125 142 155 161 160 151 146 145 145 125 110 99 95 78 67 61 59 54 54 52 49 43 42 38 37 37 38 37 44 36 31 24 22 14 13 7
220 202 214 172 206 228 223 248 304 101 100 76 87 135 144 157 165 161 169 169 172 163 160 148 134 117 94 85 69 63 57 48 54 52 49 49 46 46 43 43 42 45 33 28 24 16 13 8 5